Regional Weather Roundup
Issued by NWS

Home | Current Version | Previous Version | Text Only | Print | Product List | Glossary On
Versions: 1 2 3 4 5 6 7 8 9 10 11 12 13 14 15 16 17 18 19 20 21 22 23 24 25 26 27 28 29 30 31 32 33 34 35 36 37 38 39 40 41 42 43 44 45 46 47 48 49 50
000
ASUS43 KDMX 270706
RWRIA

WEATHER ROUNDUP FOR IOWA
NATIONAL WEATHER SERVICE DES MOINES IA
100 AM CST MON FEB 27 2017

NOTE: "FAIR" INDICATES FEW OR NO CLOUDS BELOW 12,000 FEET WITH NO
SIGNIFICANT WEATHER AND/OR OBSTRUCTIONS TO VISIBILITY.

* - THESE STATIONS ARE NOT NWS STATIONS...THUS NOT UNDER NWS
QUALITY CONTROL.  THEY ALSO DO NOT REPORT WEATHER SUCH
AS PRECIPITATION OR FOG.

IAZ001>003-012>014-020>022-031>034-043>046-270800-
   NORTHWEST IOWA

CITY           SKY/WX    TMP DP  RH WIND       PRES   REMARKS
CARROLL *      CLEAR     27  23  86 CALM      30.00S
CHEROKEE *     FOG       16  16  98 CALM      29.98R VSB 3/4
DENISON *      CLEAR     23  21  93 SE3       29.97F
LE MARS *      CLEAR     21  19  93 S5        29.97S WCI  15
SHELDON *      CLEAR     25  25 100 S7        29.93S WCI  17
SIOUX CITY     CLEAR     20  17  88 E8        29.98R WCI  10
SPENCER        CLEAR     19  15  84 SW7       29.96S WCI  10
STORM LAKE *   CLEAR     25  19  80 SW6       29.97R WCI  18
$$

IAZ055>058-069>071-079>083-090>094-270800-
   SOUTHWEST IOWA

CITY           SKY/WX    TMP DP  RH WIND       PRES   REMARKS
ATLANTIC *     CLEAR     23  23 100 CALM      30.01S
AUDUBON *      CLEAR     19  18  93 CALM      30.00S
CLARINDA *     CLEAR     25  23  93 CALM      30.04S
COUNCIL BLFS * CLEAR     28  25  86 SE7       29.99F WCI  21
CRESTON *      MOCLDY    32  23  69 SE6       30.02S WCI  26
HARLAN  *      CLEAR     19  19 100 CALM      30.03F FOG
LAMONI         CLOUDY    35  21  56 S6        30.01S WCI  30
RED OAK *      PTCLDY    23  21  93 CALM      30.01F
SHENANDOAH *   CLEAR     25  23  93 CALM      30.02S
$$

IAZ047>049-059>061-072>074-084-270800-
   CENTRAL IOWA

CITY           SKY/WX    TMP DP  RH WIND       PRES   REMARKS
AMES           PTCLDY    26  25  96 CALM      30.03R
ANKENY *       CLOUDY    27  23  86 CALM      30.04S
BOONE *        CLEAR     27  27 100 S3        30.01S
CHARITON *     PTCLDY    32  21  64 SE7       30.02S WCI  26
DES MOINES     MOCLDY    33  21  61 CALM      30.03S
GRINNELL*      CLOUDY    28  24  86 SE3       30.04S
MARSHALLTOWN   MOCLDY    23  22  96 CALM      30.03S
NEWTON *       CLOUDY    28  23  80 E3        30.02S
PELLA *        PTCLDY    32  23  68 CALM      30.05S
PERRY *          N/A     26  24  92 S5        30.02S WCI  20
$$

IAZ004>006-015-016-023>025-035-036-270800-
   NORTH CENTRAL IOWA

CITY           SKY/WX    TMP DP  RH WIND       PRES   REMARKS
ALGONA *       CLEAR     19  19 100 S10       29.97S WCI   8
CLARION *      PTCLDY    16  16 100 S8        30.00S WCI   5
ESTHERVILLE    CLEAR     23  18  81 SW9       29.95S WCI  13
FORT DODGE *   CLEAR     21  18  86 S5        30.01R WCI  15
MASON CITY     PTCLDY    13  12  96 S8        30.00S WCI   2
FOREST CITY *  FOG        9   5  85 CALM      29.99S VSB<1/4
WEBSTER CITY * CLEAR     19  18  93 S12       30.00R WCI   7
IOWA FALLS *     N/A     26  23  91 S7        30.03R WCI  18
$$

IAZ007>011-017>019-026>030-037>042-050>054-066-270800-
   NORTHEAST IOWA

CITY           SKY/WX    TMP DP  RH WIND       PRES   REMARKS
CEDAR RAPIDS   PTCLDY    28  25  88 CALM      30.04S
CHARLES CITY * CLEAR     21  21 100 S6        30.02R WCI  14
CLINTON *      MOCLDY    32  27  81 NW3       30.07S
DECORAH *      CLEAR     25  21  86 CALM      30.01S
DUBUQUE        CLEAR     25  22  88 SW5       30.04S WCI  19
MONTICELLO *   PTCLDY    25  23  93 CALM      30.05S
OELWEIN *      CLEAR     25  25 100 S6        30.04R WCI  18
WATERLOO       CLEAR     23  20  88 S3        30.04R FOG
$$

IAZ064-065-067-068-078-270800-
   EAST CENTRAL IOWA

CITY           SKY/WX    TMP DP  RH WIND       PRES   REMARKS
DAVENPORT      MOCLDY    31  26  82 S5        30.07R WCI  26
IOWA CITY      MOCLDY    28  24  85 CALM      30.08R
MUSCATINE *    MOCLDY    30  27  86 CALM      30.08R
QUAD CITIES    PTCLDY    31  28  89 CALM      30.06S
$$

IAZ062-063-075>077-085>089-095>099-270800-
   SOUTHEAST IOWA

CITY           SKY/WX    TMP DP  RH WIND       PRES   REMARKS
BURLINGTON     PTCLDY    34  30  85 S7        30.07R WCI  28
FAIRFIELD *    CLEAR     34  28  80 S6        30.05S WCI  29
KEOKUK *       CLEAR     36  32  87 S7        30.07R WCI  30
CENTERVILLE *    N/A     32  28  86 CALM      30.05R
OTTUMWA        CLEAR     32  21  64 E5        30.04S WCI  27
WASHINGTON *   CLEAR     30  27  86 CALM      30.07R
$$

ABBREVIATIONS USED IN REMARKS
   TC - TEMPERATURES IN CELSIUS
  WCI - WIND CHILL INDEX
   HX - HEAT INDEX
  VSB - VISIBILITY
$$




USA.gov is the U.S. government's official web portal to all federal, state and local government web resources and services.